Probability
0 0 0 0 0 0 0 0 0 0 0 0 0 0 0 0 0 0 0 0 0 0 0 0 0 0 0 0 0 0 0 0 0 0 0 0 0 0 0 0 0 0 0
0 0 0 0 0 0 0 0 0 0 0 0 0 0 0 0 0 0 0 0 0 0 0 0 0 0 0 0 0 0 0 0 0 0 0 0 0 0 0 0 0 0 0
0 0 0 0 0 0 0 0 0 0 0 0 0 0 0 0 0 0 0 0 0 0 0 0 0 0 0 0 0 0 0 0 0 0 0 0 0 0 0 0 0 0 0
0 0 0 0 0 0 0 0 0 0 0 0 0 0 0 0 0 0 0 0 0 0 0 0 0 0 0 0 0 0 0 0 0 0 0 0 0 0 0 0 0 0 0
0 0 0 0 0 0 0 0 0 0 0 0 0 0 0 0 0 0 0 0 0 0 0 0 0 0 0 0 0 0 0 0 0 0 0 0 0 0 0 0 0 0 0
0 0 0 0 0 0 0 0 0 0 0 0 0 0 0 0 0 0 0 0 0 0 0 0 0 0 0 0 0 0 0 0 0 0 0 0 0 0 0 0 0 0 0
0 0 0 0 0 0 0 0 0 0 0 0 0 0 0 0 0 0 0 0 0 0 0 0 0 0 0 0 0 0 0 0 0 0 0 0 0 0 0 0 0 0 0
0 0 0 0 0 0 0 0 0 0 0 0 0 0 0 0 0 0 0 0 0 0 0 0 0 0 0 0 0 0 0 0 0 0 0 0 0 0 0 0 0 0 0
0 0 0 0 0 0 0 0 0 0 0 0 0 0 0 0 0 0 0 0 0 0 0 0 0 0 0 0 0 0 0 0 0 0 0 0 0 0 0 0 0 0 0
1 0 0 0 0 0 0 0 0 0 0 0 0 0 0 0 0 0 0 0 0 0 0 0 0 0 0 0 0 0 0 0 0 0 0 0 0 0 0 0 0 0 0
2 1 0 0 0 0 0 0 0 0 0 0 0 0 0 0 0 0 0 0 0 0 0 0 0 0 0 0 0 0 0 0 0 0 0 0 0 0 0 0 0 0 0
2 1 0 0 0 0 0 0 0 0 0 0 0 0 0 0 0 0 0 0 0 0 0 0 0 0 0 0 0 0 0 0 0 0 0 0 0 0 0 0 0 0 0
1 2 1 0 0 0 0 0 0 0 0 0 0 0 0 0 0 0 0 0 0 0 0 0 0 0 0 0 0 0 0 0 0 0 0 0 0 0 0 0 0 0 0
1 2 2 1 0 0 0 0 0 0 0 0 0 0 0 0 0 0 0 0 0 0 0 0 0 0 0 0 0 0 0 0 0 0 0 0 0 0 0 0 0 0 0
0 1 2 2 1 1 1 1 0 0 0 0 0 0 0 0 0 0 0 0 0 0 0 0 0 0 0 0 0 0 0 0 0 0 0 0 0 0 0 0 0 0 0
0 1 2 3 3 2 2 2 1 0 0 0 0 0 0 0 0 0 0 0 0 0 0 0 0 0 0 0 0 0 0 0 0 0 0 0 0 0 0 0 0 0 0
0 1 2 2 2 2 2 2 1 0 0 0 0 0 0 0 0 0 0 0 0 0 0 0 0 0 0 0 0 0 0 0 0 0 0 0 0 0 0 0 0 0 0
0 0 1 1 1 1 1 1 1 0 0 0 0 0 0 0 0 0 0 0 0 0 0 0 0 0 0 0 0 0 0 0 0 0 0 0 0 0 0 0 0 0 0
0 0 0 0 0 0 0 0 0 0 0 0 0 0 0 0 0 0 0 0 0 0 0 0 0 0 0 0 0 0 0 0 0 0 0 0 0 0 0 0 0 0 0
0 0 0 0 0 0 0 0 0 0 0 0 0 0 0 0 0 0 0 0 0 0 0 0 0 0 0 0 0 0 0 0 0 0 0 0 0 0 0 0 0 0 0
0 0 0 0 0 0 0 0 0 0 0 0 0 0 0 0 0 0 0 0 0 0 0 0 0 0 0 0 0 0 0 0 0 0 0 0 0 0 0 0 0 0 0
0 0 0 0 0 0 0 0 0 0 0 0 0 0 0 0 0 0 0 0 0 0 0 0 0 0 0 0 0 0 0 0 0 0 0 0 0 0 0 0 0 0 0
0 0 0 0 0 0 0 0 0 0 0 0 0 0 0 0 0 0 0 0 0 0 0 0 0 0 0 0 0 0 0 0 0 0 0 0 0 0 0 0 0 0 0
0 0 0 0 0 0 0 0 0 0 0 0 0 0 0 0 0 0 0 0 0 0 0 0 0 0 0 0 0 0 0 0 0 0 0 0 0 0 0 0 0 0 0
0 0 0 0 0 0 0 0 0 0 0 0 0 0 0 0 0 0 0 0 0 0 0 0 0 0 0 0 0 0 0 0 0 0 0 0 0 0 0 0 0 0 0
0 0 0 0 0 0 0 0 0 0 0 0 0 0 0 0 0 0 0 0 0 0 0 0 0 0 0 0 0 0 0 0 0 0 0 0 0 0 0 0 0 0 0
Wind_Speed
9 8 7 6 6 5 4 4 4 4 4 4 3 3 3 3 3 3 3 3 3 4 3 4 4 3 2 2 2 1 2 2 2 2 2 2 3 4 4 4 4 4 7
9 8 8 7 7 6 6 5 5 5 4 4 4 3 3 2 2 3 3 2 2 2 3 3 3 3 3 2 2 2 2 1 1 2 2 1 2 3 3 3 3 3 4
9 9 8 8 8 7 6 6 5 5 5 4 4 3 3 2 2 2 2 2 2 2 2 2 2 2 2 2 1 2 1 1 1 1 2 1 1 2 2 2 3 2 3
10 9 9 8 8 7 7 6 6 6 5 5 4 3 3 2 2 2 2 2 2 2 2 1 1 1 1 1 1 1 1 1 1 1 1 1 0 1 1 1 1 2 2
11 10 10 9 8 7 7 7 6 5 5 5 4 4 3 2 2 2 2 2 2 2 2 2 2 4 5 3 1 1 1 0 1 0 0 0 0 1 1 2 2 2 1
11 10 9 8 8 8 8 7 7 6 5 5 4 4 3 2 3 0 2 2 2 2 2 2 3 3 3 2 2 3 3 1 1 1 1 1 1 1 2 3 3 3 2
11 10 10 9 9 9 8 8 7 7 6 6 5 4 4 4 5 4 3 2 2 2 2 2 2 2 2 2 3 4 2 1 3 3 2 1 2 1 2 3 3 4 4
11 10 10 10 10 9 8 8 8 7 7 6 6 6 4 4 6 5 4 4 2 2 2 2 3 3 2 1 1 2 1 1 2 3 2 2 2 2 3 4 4 4 4
11 11 11 11 10 9 9 9 8 7 7 7 6 6 6 6 7 6 6 4 3 3 3 3 3 3 3 1 3 2 2 2 1 1 3 3 3 4 4 4 4 5 4
10 10 10 10 10 10 10 9 8 7 7 6 6 6 6 5 7 8 8 4 4 3 3 3 2 3 3 4 5 4 4 3 3 3 4 5 5 5 6 6 5 5 5
8 8 9 10 10 10 9 8 7 7 7 7 7 6 6 6 7 9 8 5 4 4 4 4 3 5 5 5 6 5 3 4 4 4 4 4 4 4 4 5 5 5 6
7 8 8 9 8 8 8 7 7 7 7 7 7 6 5 6 6 8 10 9 6 6 5 4 3 6 7 7 6 4 3 5 5 4 5 5 4 4 4 5 5 6 7
7 7 7 8 7 8 8 8 7 7 6 6 6 6 5 5 5 8 10 10 9 7 5 3 3 5 6 7 7 7 6 5 5 5 6 5 5 5 5 5 6 7 8
7 7 7 7 7 7 6 7 7 7 7 6 6 6 5 5 5 5 6 7 8 8 6 5 6 7 7 6 5 7 7 6 6 6 6 6 5 5 5 5 6 6 7
6 6 6 6 6 6 6 5 6 6 6 6 6 6 6 6 6 6 6 5 5 6 6 5 5 5 6 6 6 6 6 6 7 7 7 6 6 6 6 6 6 7 8
5 5 4 4 4 4 5 4 2 3 3 4 4 4 5 4 3 6 8 7 6 5 5 6 6 7 7 7 7 7 7 7 7 7 7 7 7 7 7 7 7 8 9
4 4 3 4 4 4 4 4 4 4 4 6 6 7 7 5 4 6 8 8 8 8 7 7 7 7 8 8 7 7 8 8 7 7 8 8 8 8 8 8 8 8 9
3 3 3 3 3 3 3 3 3 3 3 3 6 8 8 8 8 8 7 6 6 8 8 8 8 8 8 8 8 8 8 7 7 8 8 8 8 8 8 9 9 10 10
2 2 2 2 2 2 2 2 3 3 3 3 2 4 6 7 7 8 8 7 7 7 8 8 8 8 8 8 7 7 8 8 8 8 8 9 8 8 9 9 9 11 10
2 3 1 1 2 2 2 2 2 2 2 2 3 2 2 3 4 4 6 6 6 7 7 7 7 8 8 7 7 7 8 8 9 9 8 8 8 9 10 11 10 10 9
2 3 2 1 1 1 1 1 2 2 2 2 2 2 2 4 4 5 5 6 6 7 7 7 7 7 7 7 7 8 10 9 8 8 8 8 9 9 9 10 10 11 10
1 1 1 0 0 0 1 1 2 2 3 3 3 2 4 5 5 5 6 6 6 6 6 6 6 6 7 7 7 8 9 9 9 9 9 9 9 10 10 10 10 10 10
1 1 1 0 0 0 1 2 2 2 3 3 4 3 3 4 5 6 6 6 6 6 6 6 7 7 7 7 8 8 9 9 8 9 9 9 9 9 10 11 12 12 11
1 1 0 0 1 1 1 2 2 3 3 4 4 4 4 5 6 6 7 6 6 7 7 7 8 10 12 9 8 8 9 8 9 9 12 11 11 10 10 10 11 12 11
1 1 1 1 1 2 2 2 3 3 3 4 4 5 5 5 6 6 6 7 8 8 9 9 8 9 12 13 11 9 8 8 9 9 9 10 12 12 11 12 10 10 11
2 1 1 1 2 2 2 3 3 4 4 4 5 5 6 6 6 7 7 7 7 8 8 8 9 11 12 11 12 11 9 9 10 11 10 9 11 10 11 10 12 11 11
Wind_Direction
186 182 179 180 176 176 176 168 169 157 154 149 139 127 113 110 107 102 93 94 91 95 95 87 82 69 72 69 51 52 48 58 92 87 80 71 58 44 40 27 33 37 57
186 184 184 178 180 183 177 176 174 164 161 159 147 140 120 114 111 112 111 109 95 90 91 92 90 87 72 62 57 71 68 55 97 102 111 77 52 45 31 18 26 37 46
183 185 182 181 184 184 180 176 178 172 169 168 163 154 141 135 128 128 130 121 112 106 103 96 92 101 103 93 80 69 70 72 78 156 105 75 45 40 18 24 36 27 27
181 186 187 185 185 183 178 176 179 178 179 176 171 163 157 154 154 151 146 138 130 122 114 104 91 91 88 103 100 91 86 96 102 126 125 132 84 19 311 348 12 27 9
183 188 190 187 182 180 172 176 175 176 182 178 172 169 163 164 154 172 170 167 159 145 142 132 90 57 33 21 8 67 118 187 168 175 146 216 83 324 337 328 334 325 1
187 191 187 185 178 179 178 177 175 177 181 177 181 176 170 159 116 106 266 186 177 167 157 146 134 142 113 100 47 21 344 294 275 241 239 271 335 352 335 309 314 307 320
190 190 185 185 181 184 179 176 178 180 179 181 187 185 185 152 146 170 245 243 202 193 188 173 157 135 183 154 149 177 176 331 304 293 283 301 299 324 295 298 309 314 316
191 190 188 187 184 180 179 181 187 186 180 188 191 191 189 162 160 177 209 230 214 204 207 205 193 184 173 222 214 206 197 187 249 262 283 302 311 308 294 299 302 293 286
192 193 189 189 185 182 184 187 188 187 187 192 194 196 196 182 170 181 205 217 222 217 214 221 227 220 126 231 240 230 228 223 181 271 327 325 337 313 293 274 275 278 284
195 195 189 188 188 188 191 191 186 187 192 192 194 204 206 203 170 185 213 218 224 222 220 219 211 246 171 214 238 241 246 249 247 222 228 231 241 233 239 259 273 280 287
191 191 188 188 190 190 189 187 185 186 188 195 197 204 211 212 181 188 210 231 229 230 226 226 208 190 216 227 250 257 269 274 260 259 259 256 253 254 244 248 262 272 280
180 183 186 186 186 184 183 185 189 188 191 196 203 205 212 207 208 196 205 226 250 239 240 238 215 184 212 225 235 250 259 257 258 257 257 257 260 261 261 262 261 261 266
175 180 183 182 183 183 183 183 186 191 199 203 205 211 210 207 198 199 206 215 228 241 248 251 230 197 213 223 226 232 234 242 251 255 257 261 264 269 270 266 265 263 266
177 180 182 182 182 183 187 190 192 194 201 208 211 215 215 206 208 201 207 211 213 229 243 226 212 216 229 246 230 223 234 243 249 255 261 265 266 261 258 259 262 262 262
178 176 180 182 183 187 188 199 207 206 208 210 214 215 216 219 211 200 206 213 216 220 227 230 229 225 228 232 236 237 237 236 240 249 256 260 260 259 258 257 260 264 267
177 175 176 177 180 186 190 190 198 234 209 219 237 242 233 234 192 187 206 218 215 206 219 232 234 235 238 239 240 239 238 241 244 247 251 253 255 257 259 257 256 260 267
180 174 173 178 180 187 194 201 201 198 209 223 226 231 240 236 213 205 208 214 209 199 223 237 240 241 242 244 245 246 247 246 246 248 251 253 255 257 259 260 260 261 264
168 157 169 177 189 193 199 209 216 221 220 223 213 215 222 226 223 216 207 204 218 215 232 239 242 244 245 246 247 248 251 251 249 250 252 254 255 257 259 259 261 263 268
137 139 151 163 180 191 200 211 221 229 239 245 242 197 203 217 216 210 199 222 233 232 234 240 244 247 248 248 249 250 251 252 252 252 253 254 256 256 258 260 263 265 265
115 96 114 156 167 178 192 208 223 235 243 248 251 257 207 215 228 215 215 232 241 245 245 246 248 251 252 252 251 250 251 251 253 252 254 254 254 255 259 262 264 265 263
110 116 132 155 158 188 214 232 240 248 256 261 264 260 251 249 248 246 240 238 242 248 250 253 254 253 253 254 253 252 253 255 254 254 255 255 256 257 259 261 262 262 264
105 112 125 136 167 241 264 254 258 267 269 273 277 253 218 248 259 259 255 252 250 250 253 255 255 254 253 251 252 253 253 254 255 255 256 258 257 258 258 259 260 260 259
83 84 85 70 20 346 273 287 288 283 281 280 279 277 263 261 262 264 265 266 265 260 256 253 257 258 256 254 252 252 254 256 258 262 264 263 261 260 259 259 260 261 259
68 67 32 348 297 283 285 293 293 288 286 285 284 281 278 275 273 273 274 273 270 267 263 259 259 259 259 259 257 255 256 262 270 268 265 265 265 263 260 258 258 258 260
33 21 344 315 303 298 297 297 296 295 292 291 292 292 290 287 284 281 278 276 275 273 272 269 265 264 265 265 264 262 262 260 262 269 269 264 263 262 262 261 259 258 257
15 3 346 334 323 315 306 303 304 305 302 301 298 296 295 293 290 288 285 281 280 278 276 272 271 272 273 270 270 271 266 257 254 257 265 267 264 261 261 260 260 259 259